CAPE
2 0 0 16 36 6 10 37 1 0 11 21 16 7 0 0 0 0 0 0 0 0 0 0 0 0 0 0 0 0 0 0 0 0 0 0 0 0 0 0 0 0 0 0
0 0 0 12 38 17 10 16 16 68 0 12 1 5 0 0 0 0 0 0 0 0 0 0 0 0 0 0 0 0 0 0 0 0 0 0 0 0 0 0 0 0 0 0
1 0 0 27 44 17 16 11 0 39 42 0 0 2 0 0 0 0 0 0 0 0 0 0 0 0 0 0 0 0 0 0 0 0 0 0 0 0 0 0 0 0 0 0
3 2 0 23 41 24 18 10 0 20 5 1 1 0 0 1 0 0 0 0 0 0 0 0 0 0 0 0 0 0 0 0 0 0 0 0 0 0 0 0 0 0 0 0
3 4 0 41 6 21 4 2 5 36 1 0 6 15 3 1 0 0 0 0 0 0 0 0 0 0 0 0 0 0 0 0 0 0 0 0 0 0 0 0 0 0 0 0
2 6 4 37 0 28 1 0 0 31 2 1 6 0 0 1 0 0 0 0 0 0 0 0 0 0 0 0 0 0 0 0 0 0 0 0 0 0 0 0 0 0 0 0
3 10 22 15 5 4 0 0 3 45 18 16 0 0 3 4 0 0 0 0 0 0 0 0 0 0 0 0 0 0 0 0 0 0 0 0 0 0 0 0 0 0 0 0
5 20 22 8 14 0 0 0 0 30 29 14 20 7 0 9 0 0 0 0 0 0 0 0 0 0 0 0 0 0 0 0 0 0 0 0 0 0 0 0 0 0 0 0
21 19 7 10 6 1 0 3 0 3 9 28 32 30 1 0 0 0 0 0 0 0 0 1 0 9 4 8 0 0 0 0 0 0 0 0 0 0 0 0 0 0 0 0
23 13 11 1 3 19 0 0 3 14 0 12 29 8 0 5 0 0 0 0 0 0 0 0 0 12 0 16 1 3 0 0 0 0 0 0 0 0 0 0 0 0 0 0
18 14 10 0 7 29 0 0 0 13 3 0 0 26 0 0 0 0 0 0 0 0 0 0 0 0 0 0 0 0 0 0 0 0 0 0 0 0 0 0 0 0 0 0
17 13 4 14 13 22 0 0 0 0 8 0 0 0 0 0 0 0 0 0 0 0 0 0 0 0 0 0 0 0 0 0 0 0 0 0 0 0 0 0 0 0 0 0
13 12 20 11 18 23 0 0 0 5 12 0 3 0 0 0 0 0 0 0 0 5 2 0 0 0 0 0 0 0 0 0 0 0 0 0 0 0 0 0 0 0 0 0
13 17 7 15 28 28 0 10 42 23 20 1 0 21 48 34 1 0 0 0 1 4 0 15 5 16 0 0 0 0 0 0 0 0 0 0 0 0 0 0 0 0 0 0
1 0 1 16 26 21 0 0 28 12 3 0 0 0 0 55 98 30 0 0 1 12 1 0 27 0 0 0 0 0 0 0 0 0 0 0 0 0 0 0 0 0 0 0
16 21 16 19 8 2 9 5 5 23 23 2 0 0 0 12 93 135 22 0 0 0 0 0 0 0 0 0 0 0 0 0 0 0 0 0 0 0 0 0 0 0 0 0
4 2 1 0 1 23 1 0 0 2 0 6 0 0 0 3 11 5 1 0 0 1 0 0 0 0 0 0 0 0 0 0 0 0 0 0 0 0 0 0 0 0 0 0
0 0 12 50 2 0 0 1 12 0 0 0 0 0 0 0 0 21 0 2 1 0 0 0 0 0 0 0 0 0 0 0 0 0 0 0 0 0 0 0 0 0 0 0
6 27 13 1 3 0 0 12 1 22 0 0 7 7 4 0 0 0 0 0 3 0 0 0 0 0 0 0 0 0 0 0 0 0 0 0 0 0 0 0 0 0 0 0
18 0 0 0 0 46 1 63 5 3 6 4 0 0 4 0 0 0 1 0 0 12 0 0 0 0 0 0 0 0 0 0 0 0 0 0 0 0 0 0 0 0 0 0
0 0 0 9 41 49 5 0 2 0 1 0 0 2 3 0 0 0 0 0 0 8 0 0 0 0 0 0 0 0 0 0 0 0 0 0 0 0 0 0 0 0 0 0
1 20 13 29 9 0 0 0 1 0 0 0 0 0 5 0 0 0 1 0 0 0 0 0 0 0 1 1 1 0 0 0 0 0 0 0 0 0 0 0 0 0 0 0
4 4 0 3 0 5 0 0 0 0 0 0 0 0 0 0 0 1 0 0 0 0 0 0 1 1 0 0 0 0 0 0 0 0 0 0 0 0 0 0 0 0 0 0
0 1 0 0 0 0 0 0 0 0 0 0 0 1 0 0 0 1 1 0 0 0 0 1 1 0 1 1 0 0 0 0 0 0 0 0 0 0 1 0 0 0 0 0
0 0 0 0 0 0 0 0 1 1 0 0 1 0 0 0 0 0 0 0 0 0 0 0 1 0 0 0 1 1 1 1 0 1 0 1 1 0 0 0 0 0 0 0
0 0 0 0 1 0 0 1 0 1 0 0 0 0 0 0 0 0 0 0 0 0 0 0 0 0 1 1 1 1 1 2 1 1 0 0 0 0 0 0 0 0 0 0
0 1 1 0 1 2 3 5 4 1 0 1 0 0 0 0 0 0 0 0 0 0 0 0 0 1 1 1 1 1 1 0 1 0 0 0 0 0 0 0 0 0 0 0
CIN
-4 -0 -0 -5 -0 -4 -15 -0 -0 -0 -0 -0 -0 -0 -0 -0 -0 -0 -0 -0 -0 -0 -0 -0 -0 -0 -0 -0 -0 -0 -0 -0 -0 -0 -0 -0 -0 -0 -0 -0 -0 -0 -0 -0
-1 -0 -0 -4 -7 -3 -12 -1 -0 -0 -0 -0 -0 -0 -5 -0 -0 -0 -0 -0 -0 -0 -0 -0 -0 -0 -0 -0 -0 -0 -0 -0 -0 -0 -0 -0 -0 -0 -0 -0 -0 -0 -0 -0
-0 -4 -0 -0 -4 -1 -31 -0 -0 -1 -0 -0 -0 -0 -1 -0 -0 -0 -0 -0 -0 -0 -0 -0 -0 -0 -0 -0 -0 -0 -0 -0 -0 -0 -0 -0 -0 -0 -0 -0 -0 -0 -0 -0
-1 -5 -0 -0 -1 -2 -39 -10 -0 -5 -4 -0 -1 -0 -0 -0 -0 -0 -0 -0 -0 -0 -0 -0 -0 -0 -0 -0 -0 -0 -0 -0 -0 -0 -0 -0 -0 -0 -0 -0 -0 -0 -0 -0
-2 -2 -0 -0 -7 -0 -3 -44 -2 -1 -4 -0 -0 -1 -1 -0 -0 -0 -0 -0 -0 -0 -0 -0 -0 -0 -0 -0 -0 -0 -0 -0 -0 -0 -0 -0 -0 -0 -0 -0 -0 -0 -0 -0
-1 -0 -0 -0 -3 -0 -1 -0 -24 -27 -5 -1 -0 -0 -0 -0 -0 -0 -0 -0 -0 -0 -0 -0 -0 -0 -0 -0 -0 -0 -0 -0 -0 -0 -0 -0 -0 -0 -0 -0 -0 -0 -0 -0
-1 -0 -0 -0 -1 -0 -0 -0 -2 -1 -1 -0 -0 -0 -0 -1 -0 -0 -0 -0 -0 -0 -0 -0 -0 -0 -0 -0 -0 -0 -0 -0 -0 -0 -0 -0 -0 -0 -0 -0 -0 -0 -0 -0
-0 -0 -0 -0 -0 -0 -0 -0 -2 -2 -1 -3 -1 -0 -0 -1 -0 -0 -0 -0 -0 -0 -0 -0 -0 -4 -91 -0 -0 -0 -0 -0 -0 -0 -0 -0 -0 -0 -0 -0 -0 -0 -0 -0
-0 -0 -0 -0 -0 -0 -0 -8 -0 -40 -14 -3 -2 -1 -3 -0 -0 -0 -0 -0 -0 -0 -0 -29 -5 -28 -51 -66 -0 -0 -0 -0 -0 -0 -0 -0 -0 -0 -0 -0 -0 -0 -0 -0
-0 -0 -0 -2 -8 -0 -0 -0 -28 -56 -0 -26 -29 -3 -0 -4 -0 -0 -0 -0 -0 -0 -0 -0 -0 -24 -0 -29 -2 -39 -0 -0 -0 -0 -0 -0 -0 -0 -0 -0 -0 -0 -0 -0
-0 -0 -0 -0 -1 -0 -0 -0 -0 -3 -0 -0 -7 -4 -0 -0 -0 -0 -0 -0 -0 -0 -0 -0 -0 -0 -0 -0 -0 -0 -0 -0 -0 -0 -0 -0 -0 -0 -0 -0 -0 -0 -0 -0
-0 -0 -0 -0 -0 -1 -0 -0 -0 -0 -0 -0 -0 -0 -0 -0 -0 -0 -0 -0 -0 -0 -0 -0 -0 -0 -0 -0 -0 -0 -0 -0 -0 -0 -0 -0 -0 -0 -0 -0 -0 -0 -0 -0
-0 -0 -0 -0 -0 -10 -8 -0 -0 -0 -0 -0 -0 -0 -0 -0 -0 -0 -0 -0 -0 -69 -85 -0 -12 -7 -0 -0 -0 -0 -0 -0 -0 -0 -0 -0 -0 -0 -0 -0 -0 -0 -0 -0
-0 -2 -9 -5 -8 -8 -2 -1 -7 -7 -0 -0 -0 -55 -51 -97 -35 -0 -0 -0 -8 -52 -0 -46 -55 -50 -0 -0 -0 -0 -0 -0 -0 -0 -0 -0 -0 -0 -0 -0 -0 -0 -0 -0
-2 -1 -9 -5 -6 -5 -0 -1 -6 -0 -17 -0 -16 -0 -0 -83 -55 -57 -0 -0 -24 -65 -3 -0 -30 -0 -0 -0 -0 -0 -0 -0 -0 -0 -0 -0 -0 -0 -0 -0 -0 -0 -0 -0
-1 -3 -3 -4 -10 -10 -0 -0 -1 -13 -4 -0 -0 -0 -0 -196 -50 -26 -45 -0 -0 -0 -0 -0 -0 -0 -0 -0 -0 -0 -0 -0 -0 -0 -0 -0 -0 -0 -0 -0 -0 -0 -0 -0
-10 -16 -1 -0 -19 -6 -1 -23 -0 -17 -0 -1 -3 -0 -0 -26 -60 -57 -6 -0 -0 -18 -0 -0 -0 -0 -0 -0 -0 -0 -0 -0 -0 -0 -0 -0 -0 -0 -0 -0 -0 -0 -0 -0
-0 -11 -36 -2 -2 -0 -0 -29 -58 -0 -1 -0 -0 -0 -0 -0 -0 -15 -0 -16 -20 -3 -0 -0 -0 -0 -0 -0 -0 -0 -0 -0 -0 -0 -0 -0 -0 -0 -0 -0 -0 -0 -0 -0
-2 -0 -0 -0 -0 -0 -0 -64 -0 -14 -24 -0 -5 -1 -6 -0 -0 -0 -0 -0 -20 -0 -0 -0 -0 -0 -0 -0 -0 -0 -0 -0 -0 -0 -0 -0 -0 -0 -0 -0 -0 -0 -0 -0
-2 -0 -0 -0 -0 -15 -0 -0 -0 -0 -3 -7 -0 -0 -15 -0 -0 -0 -1 -0 -0 -13 -0 -0 -0 -0 -0 -0 -0 -0 -0 -0 -0 -0 -0 -0 -0 -0 -0 -0 -0 -0 -0 -0
-0 -0 -0 -10 -39 -3 -0 -0 -0 -0 -1 -0 -0 -11 -3 -0 -0 -0 -0 -0 -0 -20 -0 -0 -0 -0 -0 -0 -0 -0 -0 -0 -0 -0 -0 -0 -0 -0 -0 -0 -0 -0 -0 -0
-1 -2 -6 -6 -29 -0 -0 -0 -0 -0 -0 -0 -0 -0 -12 -0 -0 -0 -0 -0 -0 -0 -0 -0 -0 -0 -0 -0 -0 -0 -0 -0 -0 -0 -0 -0 -0 -0 -0 -0 -0 -0 -0 -0
-25 -14 -0 -63 -0 -35 -0 -3 -0 -0 -0 -0 -0 -0 -0 -0 -0 -0 -0 -0 -0 -0 -0 -0 -0 -0 -0 -0 -0 -0 -0 -0 -0 -0 -0 -0 -0 -0 -0 -0 -0 -0 -0 -0
-0 -0 -0 -0 -0 -0 -0 -0 -0 -0 -0 -0 -0 -0 -0 -0 -0 -0 -0 -0 -0 -0 -0 -0 -0 -0 -0 -0 -0 -0 -0 -0 -0 -0 -0 -0 -0 -0 -0 -0 -0 -0 -0 -0
-0 -0 -0 -0 -0 -0 -0 -0 -0 -0 -0 -0 -0 -0 -0 -0 -0 -0 -0 -0 -0 -0 -0 -0 -0 -0 -0 -0 -0 -0 -0 -0 -0 -0 -0 -0 -0 -0 -0 -0 -0 -0 -0 -0
-0 -0 -0 -0 -0 -0 -0 -0 -0 -0 -0 -0 -0 -0 -0 -0 -0 -0 -0 -0 -0 -0 -0 -0 -0 -0 -0 -0 -0 -0 -0 -0 -0 -0 -0 -0 -0 -0 -0 -0 -0 -0 -0 -0
-0 -0 -0 -0 -0 -0 -0 -0 -0 -0 -0 -0 -0 -0 -0 -0 -0 -0 -0 -0 -0 -0 -0 -0 -0 -0 -0 -0 -0 -0 -0 -0 -0 -0 -0 -0 -0 -0 -0 -0 -0 -0 -0 -0
Wind_Speed
37 34 46 49 50 40 37 40 47 31 32 37 41 43 36 37 37 30 28 25 25 24 21 15 11 10 10 4 6 5 4 4 11 8 20 17 18 17 15 19 18 21 23 29
41 36 35 46 48 43 40 43 40 32 38 45 44 41 44 37 40 35 31 29 27 24 23 21 15 16 18 9 4 4 3 5 7 4 17 19 18 16 15 16 17 22 11 22
42 38 32 39 47 45 41 41 44 37 44 51 48 41 42 46 41 39 36 31 31 29 26 24 21 17 16 10 8 4 5 7 4 13 7 17 17 16 15 18 26 24 9 30
43 39 34 35 42 45 44 43 46 44 49 56 49 43 40 42 44 44 35 37 39 29 27 24 23 20 19 16 10 9 6 8 7 10 14 15 17 19 20 20 23 23 23 26
43 41 36 39 40 42 46 43 44 43 45 52 51 45 46 40 46 35 48 41 37 41 33 22 19 20 21 19 14 11 10 11 10 6 12 14 18 17 18 24 26 27 27 35
43 41 39 41 39 39 45 45 43 43 51 48 51 61 47 45 42 52 37 45 42 40 42 40 35 28 27 22 17 12 12 9 10 6 14 17 10 9 15 23 23 24 19 31
43 42 39 43 45 40 35 47 42 47 49 48 56 48 51 44 48 44 44 35 37 37 24 20 23 23 23 21 20 18 13 10 14 12 13 12 19 22 19 19 24 24 30 27
41 42 42 41 39 37 32 39 42 43 49 48 48 49 47 47 48 48 44 41 28 24 28 32 30 28 25 23 20 19 16 11 15 14 13 25 26 19 17 18 25 18 19 14
40 42 41 41 35 34 33 32 38 38 40 48 48 43 43 47 50 49 48 45 32 26 31 31 36 35 26 23 19 17 16 17 16 16 15 13 27 15 14 18 21 12 9 4
41 40 40 38 35 32 33 32 31 38 40 42 42 50 44 40 46 47 41 39 35 31 36 41 37 36 26 24 19 19 18 20 18 19 23 27 20 18 10 18 24 6 3 2
37 37 35 35 33 31 31 36 34 39 38 44 34 44 44 44 48 47 36 33 42 35 40 38 33 33 28 25 23 21 19 18 20 21 23 28 15 13 12 16 16 3 3 3
33 32 32 31 31 32 28 35 39 47 33 40 31 34 39 40 41 44 36 38 31 34 35 35 31 31 26 24 26 24 24 21 21 21 25 21 12 15 9 11 8 2 1 1
29 30 29 28 29 26 26 30 32 42 36 38 40 38 29 31 37 35 41 40 34 33 31 32 31 31 26 27 29 22 26 21 25 23 23 21 18 15 13 9 6 3 3 1
26 26 26 25 25 22 21 28 28 35 31 43 36 27 34 28 31 38 41 33 30 28 29 35 37 34 28 29 26 25 24 17 22 27 27 23 20 15 11 8 6 4 6 6
25 24 22 21 21 20 23 26 29 31 29 38 36 34 30 27 31 37 39 41 37 31 33 34 39 33 27 26 28 29 22 21 20 24 21 18 17 9 7 6 6 6 4 7
19 18 18 18 17 16 21 28 32 35 31 26 30 23 27 25 29 36 40 40 36 36 35 36 33 29 29 29 34 30 22 22 20 21 15 17 13 9 11 8 8 8 8 7
16 15 14 13 16 18 19 29 25 32 22 27 30 28 22 22 21 26 32 33 32 33 34 33 31 31 28 33 40 27 18 18 17 13 11 16 12 14 10 8 8 8 8 9
14 12 11 12 14 19 37 26 29 31 31 26 28 28 23 22 27 29 27 31 30 30 33 31 32 27 28 36 32 26 21 16 14 15 20 17 11 9 9 8 7 9 9 8
17 19 20 11 15 29 31 25 24 25 27 32 30 29 23 19 21 21 24 26 31 26 31 30 29 32 35 31 28 22 19 20 14 14 13 9 9 9 9 9 9 9 9 8
25 13 13 27 30 24 25 31 28 29 31 31 30 25 25 21 19 22 23 24 27 32 30 23 32 34 30 30 28 21 18 15 10 10 13 11 10 9 8 9 8 8 7 6
24 24 27 29 31 33 29 22 29 28 33 34 36 29 25 21 24 24 27 23 23 30 28 27 32 35 32 28 19 14 12 11 16 15 13 12 9 8 8 8 7 6 6 6
26 23 30 31 27 23 22 21 19 25 27 26 30 32 30 23 21 24 24 21 19 27 21 23 26 23 20 18 16 13 15 15 16 13 10 8 8 7 6 6 7 7 2 4
24 29 27 25 20 21 20 22 18 20 21 20 20 19 18 19 19 20 19 19 20 12 17 17 21 20 20 15 13 13 12 11 9 8 8 6 7 7 5 6 8 5 7 7
24 21 20 16 17 17 18 19 19 16 19 15 13 13 14 16 17 16 16 13 14 16 19 21 21 16 14 14 12 10 11 10 9 8 7 8 7 7 7 6 8 7 7 7
22 14 15 12 13 13 14 13 13 11 12 11 12 12 15 15 16 17 14 14 16 17 19 22 21 14 11 10 10 9 8 8 9 8 7 7 6 6 8 8 8 8 7 7
18 9 12 8 6 6 8 9 10 11 13 14 13 13 13 14 15 15 17 17 17 21 22 22 16 12 11 10 9 9 9 9 9 8 6 7 8 8 8 8 9 9 8 9
12 9 4 7 9 9 10 12 14 16 13 14 14 15 17 16 16 16 17 16 20 23 21 17 14 13 11 9 9 9 10 9 8 8 9 9 8 9 9 9 11 11 12 13
Wind_Direction
231 234 238 233 227 218 220 228 234 229 211 224 236 239 245 246 242 253 255 262 260 259 257 257 226 244 209 245 199 224 217 312 192 278 294 305 305 299 298 297 306 305 315 302
226 226 232 229 221 213 214 227 232 224 213 224 231 240 242 247 240 245 247 253 255 260 262 262 259 259 266 263 259 216 213 301 207 255 299 297 297 301 308 308 312 297 317 311
220 221 218 222 216 211 214 226 223 225 223 228 232 231 239 237 241 244 244 248 250 253 258 262 265 260 268 263 265 278 218 289 229 197 251 303 294 294 303 301 287 298 302 296
213 216 210 205 208 210 214 225 227 224 219 223 228 231 238 235 237 238 242 245 242 249 255 261 261 264 266 279 284 280 255 261 266 288 296 299 300 298 293 296 297 297 306 302
208 212 206 189 196 208 217 225 225 225 231 226 227 233 231 232 232 239 236 241 243 242 248 259 261 268 265 272 277 270 275 282 286 270 299 302 299 300 301 296 296 296 297 289
204 206 205 190 187 198 222 225 227 226 226 221 225 229 233 233 233 236 242 238 243 243 244 247 262 269 269 278 271 253 262 264 277 226 299 302 282 248 294 300 298 298 289 295
201 205 199 185 184 199 225 219 223 224 226 224 226 231 230 233 232 236 238 245 244 246 259 264 272 274 271 274 276 273 253 257 278 284 298 227 300 311 312 306 304 301 296 297
197 195 188 186 186 189 223 219 222 225 228 227 229 231 230 233 233 236 240 241 252 254 249 255 258 260 264 268 274 271 268 255 275 278 280 294 303 313 315 315 312 315 309 307
188 184 187 186 191 194 220 225 225 231 230 229 228 230 230 230 231 235 238 239 250 256 249 247 247 250 256 261 265 274 270 270 270 288 290 284 308 317 320 319 310 324 319 307
186 184 184 192 198 204 219 229 227 227 232 231 231 229 229 230 231 236 238 237 245 248 245 243 247 251 259 252 246 261 262 269 267 280 291 297 312 325 333 308 315 311 269 236
180 186 190 199 201 204 217 228 226 225 234 230 239 230 231 231 230 233 237 236 239 244 239 242 247 252 254 260 256 253 252 259 272 286 290 295 320 327 305 319 331 305 260 260
180 181 188 201 207 211 218 230 225 221 245 231 242 241 240 234 235 232 234 237 240 240 239 244 248 251 256 256 259 265 261 267 269 277 289 303 319 318 320 331 337 71 136 303
177 187 193 198 207 208 219 224 221 226 239 238 240 236 245 244 239 237 233 238 243 243 246 244 252 255 256 259 262 268 269 273 275 282 286 298 304 311 318 321 334 355 330 1
185 191 197 202 205 192 200 218 226 223 234 228 238 246 243 247 246 238 234 243 242 249 248 245 248 255 258 260 269 265 273 269 275 281 287 294 295 298 303 310 321 325 322 318
190 195 197 194 192 194 215 213 225 220 230 225 237 252 248 251 246 241 236 238 241 246 246 247 246 254 261 266 267 264 267 274 270 281 286 284 293 285 293 292 301 307 304 316
174 169 169 170 181 191 200 219 231 227 224 231 227 248 244 254 253 241 234 235 242 243 250 251 252 257 259 262 264 270 269 275 280 284 286 288 297 288 292 290 297 305 309 313
166 165 169 185 201 184 199 224 232 213 221 228 233 233 245 255 256 246 237 235 242 244 247 254 255 255 257 261 262 274 276 278 283 285 280 287 283 286 284 288 301 313 320 321
157 155 146 148 162 208 214 231 213 208 220 231 228 232 249 268 255 245 241 233 241 248 248 255 255 259 262 262 268 273 272 277 280 279 287 286 280 283 284 289 293 301 306 314
126 123 124 143 210 202 210 217 203 218 219 214 221 222 236 258 259 253 241 240 243 253 249 254 256 256 259 267 269 271 270 273 267 287 289 288 279 277 280 281 288 290 298 308
115 132 205 190 187 185 175 183 205 213 221 223 220 231 243 262 266 256 246 249 246 245 251 259 257 259 264 269 272 269 269 275 270 268 281 281 279 273 273 278 285 290 296 308
174 178 179 179 175 172 178 207 202 208 208 218 223 233 246 257 262 264 253 246 252 249 254 254 261 264 264 268 271 274 271 275 284 290 290 286 278 268 269 276 286 288 293 306
168 168 161 165 176 187 198 198 211 209 216 224 229 239 250 263 275 260 246 242 255 256 253 257 266 280 265 260 267 276 286 290 295 296 292 295 296 297 294 294 297 289 307 351
163 157 163 180 186 192 197 204 219 224 227 235 240 247 261 269 280 263 247 248 251 260 273 269 285 298 272 281 292 292 301 308 315 317 321 323 320 315 308 310 304 295 333 340
160 167 176 195 207 216 218 213 211 236 237 251 265 280 287 280 260 263 249 261 253 263 277 282 291 296 298 300 306 309 306 310 316 322 328 329 330 333 311 324 304 322 336 337
163 173 195 219 225 219 213 229 236 253 246 267 275 307 280 281 269 268 272 278 276 291 294 291 297 308 316 316 317 318 324 328 330 331 331 334 337 336 332 336 334 332 337 340
152 179 186 235 248 286 281 269 254 249 237 235 259 270 282 290 290 289 287 278 287 290 296 301 312 313 315 320 327 332 339 339 338 345 357 354 343 340 342 342 338 339 340 336
200 202 254 232 232 267 272 277 270 259 299 299 311 289 286 312 294 292 307 308 302 299 307 312 314 322 332 343 347 346 349 353 359 1 355 352 351 348 342 339 339 338 337 335